Location: Caltech
(34.1382°N, 118.1253°W)
Time: 03:48:57
(UTC-07:00)

SL-16 R/B - Visible Passes

Search period start: 25 April 2018 00:00
Search period end: 05 May 2018 00:00
Orbit: 841 x 844 km, 71.0° (Epoch: 24 April)

Date Brightness Start Highest point End Pass type
(mag) Time Alt. Az. Time Alt. Az. Time Alt. Az.
25 Apr 4.2 02:47:14 10° N 02:51:47 24° ENE 02:56:18 10° ESE visible
25 Apr 2.6 04:30:41 10° NW 04:35:56 40° WSW 04:39:07 21° SSW visible
26 Apr 4.2 02:32:26 10° N 02:36:51 23° ENE 02:39:51 15° E visible
26 Apr 2.5 04:15:44 10° NW 04:21:02 42° WSW 04:21:30 42° WSW visible
27 Apr 4.3 02:17:30 10° N 02:21:48 22° ENE 02:23:21 20° E visible
27 Apr 2.7 04:00:40 10° NW 04:05:03 41° WNW 04:05:03 41° WNW visible
28 Apr 4.3 02:02:26 10° N 02:06:36 21° ENE 02:07:15 20° ENE visible
28 Apr 3.0 03:45:28 10° NNW 03:48:58 35° WNW 03:48:58 35° WNW visible
29 Apr 4.4 01:47:15 10° NNE 01:51:16 19° ENE 01:51:19 19° ENE visible
29 Apr 3.4 03:30:07 10° NNW 03:33:03 30° NW 03:33:03 30° NW visible
30 Apr 4.4 01:31:58 10° NNE 01:35:27 18° NE 01:35:27 18° NE visible
30 Apr 3.6 03:14:39 10° NNW 03:17:10 27° NW 03:17:10 27° NW visible
01 May 4.5 01:16:33 10° NNE 01:19:34 17° NE 01:19:34 17° NE visible
01 May 3.8 02:59:02 10° NNW 03:01:18 25° NW 03:01:18 25° NW visible
02 May 4.6 01:01:02 10° NNE 01:03:41 16° NE 01:03:41 16° NE visible
02 May 3.9 02:43:18 10° NNW 02:45:23 23° NNW 02:45:23 23° NNW visible
03 May 4.6 00:45:24 10° NNE 00:47:43 15° NE 00:47:43 15° NE visible
03 May 4.0 02:27:26 10° NNW 02:29:26 23° NNW 02:29:26 23° NNW visible
04 May 4.7 00:29:41 10° NNE 00:31:41 13° NE 00:31:41 13° NE visible
04 May 4.1 02:11:26 10° NNW 02:13:24 23° NNW 02:13:24 23° NNW visible
